When you browse on this site, cookies collect data to enhance your experience and personalize the content and advertising you see.
Visit our Privacy Policy to learn more. By continuing to use the site, you agree to this use of cookies and data.
  • In Hungary
  • List of Countries
  • For 7 days
  • Water Temperature
  • Satellite Maps
  • Weather Map
  • News
  • Weather Widgets
  • user-avatar
    Login

    Hourly Weather Knittelfeld

    Today, 19 March, Tuesday

    Time Temperature Precipitation Wind Pressure Humidity
    00:00 -1°C° 0 mm 1 mps 699 mmHg 89%
    01:00 -1°C° 0 mm 1 mps 699 mmHg 88%
    02:00 -1°C° 0 mm 1 mps 699 mmHg 88%
    03:00 -1°C° 0 mm 1 mps 699 mmHg 89%
    04:00 -1°C° 0 mm 1 mps 699 mmHg 89%
    05:00 0°C° 0 mm 1 mps 700 mmHg 88%
    06:00 0°C° 0 mm 1 mps 700 mmHg 87%
    07:00 +1°C° 0 mm 1 mps 700 mmHg 87%
    08:00 +2°C° 0 mm 1 mps 701 mmHg 80%
    09:00 +4°C° 0 mm 1 mps 701 mmHg 73%
    10:00 +5°C° 0 mm 1 mps 701 mmHg 67%
    11:00 +6°C° 0 mm 1 mps 701 mmHg 65%
    12:00 +5°C° 0 mm 2 mps 701 mmHg 62%
    13:00 +6°C° 0 mm 2 mps 701 mmHg 60%
    14:00 +5°C° 0.1 mm 2 mps 701 mmHg 62%
    15:00 +6°C° 0.1 mm 1 mps 701 mmHg 63%
    16:00 +6°C° 0.1 mm 1 mps 701 mmHg 64%
    17:00 +4°C° 0 mm 1 mps 702 mmHg 71%
    18:00 +3°C° 0 mm 1 mps 702 mmHg 79%
    19:00 +1°C° 0 mm 1 mps 702 mmHg 86%
    20:00 0°C° 0 mm 1 mps 703 mmHg 87%
    21:00 0°C° 0 mm 1 mps 703 mmHg 89%
    22:00 -1°C° 0 mm 1 mps 703 mmHg 90%
    23:00 -1°C° 0 mm 1 mps 704 mmHg 90%

    Tomorrow, 20 March, Wednesday

    Time Temperature Precipitation Wind Pressure Humidity
    00:00 -1°C° 0 mm 1 mps 704 mmHg 90%
    01:00 -1°C° 0 mm 1 mps 704 mmHg 90%
    02:00 -1°C° 0 mm 1 mps 705 mmHg 91%
    03:00 -1°C° 0 mm 1 mps 705 mmHg 91%
    04:00 -2°C° 0 mm 1 mps 705 mmHg 91%
    05:00 -1°C° 0 mm 1 mps 705 mmHg 90%
    06:00 -1°C° 0 mm 1 mps 706 mmHg 89%
    07:00 -1°C° 0 mm 1 mps 706 mmHg 87%
    08:00 +2°C° 0 mm 1 mps 706 mmHg 77%
    09:00 +4°C° 0 mm 1 mps 707 mmHg 68%
    10:00 +6°C° 0 mm 1 mps 707 mmHg 58%
    11:00 +7°C° 0 mm 1 mps 707 mmHg 55%
    12:00 +8°C° 0 mm 1 mps 707 mmHg 52%
    13:00 +9°C° 0 mm 1 mps 707 mmHg 50%
    14:00 +9°C° 0 mm 1 mps 707 mmHg 51%
    15:00 +8°C° 0 mm 1 mps 707 mmHg 53%
    16:00 +8°C° 0 mm 1 mps 706 mmHg 54%
    17:00 +6°C° 0 mm 1 mps 706 mmHg 64%
    18:00 +4°C° 0 mm 1 mps 706 mmHg 73%
    19:00 +1°C° 0 mm 1 mps 707 mmHg 82%
    20:00 +1°C° 0 mm 1 mps 707 mmHg 84%
    21:00 0°C° 0 mm 1 mps 707 mmHg 85%
    22:00 0°C° 0 mm 1 mps 708 mmHg 87%
    23:00 0°C° 0 mm 1 mps 708 mmHg 87%

    Day after tomorrow, 21 March, Thursday

    Time Temperature Precipitation Wind Pressure Humidity
    00:00 0°C° 0 mm 1 mps 708 mmHg 87%
    01:00 0°C° 0 mm 1 mps 708 mmHg 87%
    02:00 0°C° 0 mm 1 mps 707 mmHg 86%
    03:00 -1°C° 0 mm 1 mps 707 mmHg 86%
    04:00 -1°C° 0 mm 1 mps 707 mmHg 85%
    05:00 0°C° 0 mm 1 mps 707 mmHg 82%
    06:00 -1°C° 0 mm 0 mps 708 mmHg 79%
    07:00 0°C° 0 mm 0 mps 708 mmHg 75%
    08:00 +4°C° 0 mm 1 mps 708 mmHg 66%
    09:00 +6°C° 0 mm 1 mps 708 mmHg 57%
    10:00 +9°C° 0 mm 1 mps 709 mmHg 48%
    11:00 +10°C° 0 mm 1 mps 708 mmHg 46%
    12:00 +11°C° 0 mm 1 mps 708 mmHg 44%
    13:00 +12°C° 0 mm 1 mps 708 mmHg 41%
    14:00 +11°C° 0 mm 1 mps 707 mmHg 44%
    15:00 +11°C° 0 mm 1 mps 707 mmHg 46%
    16:00 +11°C° 0 mm 1 mps 706 mmHg 48%
    17:00 +8°C° 0 mm 1 mps 706 mmHg 56%
    18:00 +6°C° 0 mm 1 mps 706 mmHg 64%
    19:00 +2°C° 0 mm 0 mps 706 mmHg 72%
    20:00 +2°C° 0 mm 0 mps 706 mmHg 72%
    21:00 +1°C° 0 mm 0 mps 706 mmHg 71%
    22:00 +1°C° 0 mm 0 mps 706 mmHg 70%
    23:00 +2°C° 0 mm 1 mps 706 mmHg 69%

    22 March, Friday

    Time Temperature Precipitation Wind Pressure Humidity
    00:00 +2°C° 0 mm 1 mps 706 mmHg 67%
    01:00 +2°C° 0 mm 1 mps 706 mmHg 66%
    02:00 +2°C° 0 mm 1 mps 706 mmHg 64%
    03:00 +2°C° 0 mm 1 mps 705 mmHg 63%
    04:00 +2°C° 0 mm 1 mps 705 mmHg 62%
    05:00 +2°C° 0 mm 1 mps 705 mmHg 60%
    06:00 +3°C° 0 mm 1 mps 705 mmHg 58%
    07:00 +3°C° 0 mm 1 mps 706 mmHg 56%
    08:00 +6°C° 0 mm 1 mps 706 mmHg 51%
    09:00 +9°C° 0 mm 1 mps 706 mmHg 45%
    10:00 +12°C° 0 mm 1 mps 706 mmHg 39%
    11:00 +13°C° 0 mm 1 mps 706 mmHg 39%
    12:00 +14°C° 0 mm 1 mps 706 mmHg 38%
    13:00 +15°C° 0 mm 1 mps 706 mmHg 38%
    14:00 +15°C° 0 mm 1 mps 705 mmHg 41%
    15:00 +15°C° 0 mm 1 mps 705 mmHg 45%
    16:00 +14°C° 0 mm 1 mps 705 mmHg 48%
    17:00 +12°C° 0 mm 1 mps 704 mmHg 57%
    18:00 +8°C° 0 mm 0 mps 704 mmHg 66%
    19:00 +5°C° 0 mm 0 mps 704 mmHg 75%
    20:00 +5°C° 0 mm 0 mps 704 mmHg 76%
    21:00 +5°C° 0 mm 1 mps 704 mmHg 77%
    22:00 +5°C° 0 mm 1 mps 705 mmHg 78%
    23:00 +5°C° 0 mm 1 mps 704 mmHg 78%

    23 March, Saturday

    Time Temperature Precipitation Wind Pressure Humidity
    00:00 +5°C° 0 mm 1 mps 704 mmHg 78%
    01:00 +5°C° 0 mm 1 mps 704 mmHg 79%
    02:00 +5°C° 0 mm 1 mps 704 mmHg 78%
    03:00 +5°C° 0 mm 1 mps 704 mmHg 78%
    04:00 +4°C° 0 mm 1 mps 704 mmHg 78%
    05:00 +5°C° 0 mm 1 mps 704 mmHg 76%
    06:00 +5°C° 0 mm 1 mps 704 mmHg 74%
    07:00 +6°C° 0 mm 1 mps 704 mmHg 71%
    08:00 +9°C° 0 mm 1 mps 705 mmHg 63%
    09:00 +12°C° 0 mm 1 mps 705 mmHg 55%
    10:00 +15°C° 0 mm 1 mps 705 mmHg 47%
    11:00 +16°C° 0 mm 1 mps 705 mmHg 45%
    12:00 +18°C° 0 mm 1 mps 705 mmHg 43%
    13:00 +19°C° 0 mm 1 mps 705 mmHg 41%
    14:00 +18°C° 0 mm 1 mps 704 mmHg 43%
    15:00 +18°C° 0 mm 1 mps 704 mmHg 45%
    16:00 +18°C° 0 mm 1 mps 703 mmHg 48%
    17:00 +14°C° 0 mm 1 mps 703 mmHg 56%
    18:00 +12°C° 0 mm 1 mps 702 mmHg 65%
    19:00 +8°C° 0 mm 0 mps 702 mmHg 74%
    20:00 +8°C° 0 mm 1 mps 702 mmHg 75%
    21:00 +8°C° 0 mm 1 mps 702 mmHg 76%
    22:00 +7°C° 0 mm 1 mps 702 mmHg 78%
    23:00 +7°C° 0 mm 1 mps 702 mmHg 78%

    24 March, Sunday

    Time Temperature Precipitation Wind Pressure Humidity
    00:00 +7°C° 0 mm 1 mps 702 mmHg 78%
    01:00 +7°C° 0 mm 1 mps 701 mmHg 79%
    02:00 +6°C° 0 mm 1 mps 701 mmHg 79%
    03:00 +6°C° 0 mm 1 mps 701 mmHg 78%
    04:00 +6°C° 0 mm 1 mps 701 mmHg 78%
    05:00 +7°C° 0 mm 1 mps 701 mmHg 77%
    06:00 +7°C° 0 mm 1 mps 701 mmHg 75%
    07:00 +7°C° 0 mm 1 mps 701 mmHg 74%
    08:00 +11°C° 0 mm 1 mps 702 mmHg 66%
    09:00 +14°C° 0 mm 1 mps 702 mmHg 59%
    10:00 +18°C° 0 mm 1 mps 702 mmHg 51%
    11:00 +19°C° 0 mm 1 mps 702 mmHg 48%
    12:00 +20°C° 0 mm 1 mps 702 mmHg 45%
    13:00 +22°C° 0 mm 1 mps 702 mmHg 42%
    14:00 +21°C° 0 mm 1 mps 701 mmHg 43%
    15:00 +20°C° 0 mm 1 mps 701 mmHg 45%
    16:00 +19°C° 0 mm 1 mps 700 mmHg 47%
    17:00 +16°C° 0 mm 1 mps 700 mmHg 57%
    18:00 +14°C° 0 mm 1 mps 699 mmHg 67%
    19:00 +12°C° 0 mm 1 mps 699 mmHg 77%
    20:00 +11°C° 0 mm 1 mps 699 mmHg 81%
    21:00 +10°C° 0 mm 1 mps 699 mmHg 85%
    22:00 +8°C° 0 mm 2 mps 699 mmHg 89%
    23:00 +8°C° 0 mm 2 mps 699 mmHg 90%
    Show more